owner,sensor,date,latitude,longitude,vertical_datum,wind_speed,wind_to_direction,wind_speed_of_gust,qcFlag 
NDBC,ioos:station:wmo:42012:1,2016-07-04T23:50:00Z,30.0650,-87.5550,5.0,6.0,230.0,7.0,'1111122,1111122,1111122' 
NDBC,ioos:station:wmo:42012:1,2016-07-05T00:50:00Z,30.0650,-87.5550,5.0,5.0,210.0,6.0,'1111122,1111122,1111122' 
NDBC,ioos:station:wmo:42012:1,2016-07-05T01:50:00Z,30.0650,-87.5550,5.0,7.0,200.0,8.0,'1111122,1111122,1111122' 
NDBC,ioos:station:wmo:42012:1,2016-07-05T02:50:00Z,30.0650,-87.5550,5.0,8.0,200.0,10.0,'1111122,1111122,1111122' 
NDBC,ioos:station:wmo:42012:1,2016-07-05T03:50:00Z,30.0650,-87.5550,5.0,8.0,220.0,9.0,'1111122,1111122,1111122' 
NDBC,ioos:station:wmo:42012:1,2016-07-05T04:50:00Z,30.0650,-87.5550,5.0,7.0,220.0,9.0,'1111122,1111122,1111122' 
NDBC,ioos:station:wmo:42012:1,2016-07-05T05:50:00Z,30.0650,-87.5550,5.0,7.0,230.0,8.0,'1111122,1111122,1111122' 
NDBC,ioos:station:wmo:42012:1,2016-07-05T06:50:00Z,30.0650,-87.5550,5.0,7.0,220.0,8.0,'1111122,1111122,1111122' 
NDBC,ioos:station:wmo:42012:1,2016-07-05T07:50:00Z,30.0650,-87.5550,5.0,7.0,220.0,7.0,'1111122,1111122,1111122' 
NDBC,ioos:station:wmo:42012:1,2016-07-05T08:50:00Z,30.0650,-87.5550,5.0,7.0,220.0,8.0,'1111122,1111122,1111122' 
NDBC,ioos:station:wmo:42012:1,2016-07-05T09:50:00Z,30.0650,-87.5550,5.0,6.0,240.0,7.0,'1111122,1111122,1111122' 
NDBC,ioos:station:wmo:42012:1,2016-07-05T10:50:00Z,30.0650,-87.5550,5.0,6.0,250.0,7.0,'1111122,1111122,1111122' 
NDBC,ioos:station:wmo:42012:1,2016-07-05T11:50:00Z,30.0650,-87.5550,5.0,7.0,250.0,8.0,'1111122,1111122,1111122' 
NDBC,ioos:station:wmo:42012:1,2016-07-05T12:50:00Z,30.0650,-87.5550,5.0,6.0,250.0,7.0,'1111122,1111122,1111122' 
NDBC,ioos:station:wmo:42012:1,2016-07-05T13:50:00Z,30.0650,-87.5550,5.0,5.0,240.0,6.0,'1111122,1111122,1111122' 
NDBC,ioos:station:wmo:42012:1,2016-07-05T14:50:00Z,30.0650,-87.5550,5.0,6.0,250.0,7.0,'1111122,1111122,1111122' 
NDBC,ioos:station:wmo:42012:1,2016-07-05T15:50:00Z,30.0650,-87.5550,5.0,5.0,250.0,6.0,'1111122,1111122,1111122' 
NDBC,ioos:station:wmo:42012:1,2016-07-05T16:50:00Z,30.0650,-87.5550,5.0,6.0,250.0,6.0,'1111122,1111122,1111122' 
NDBC,ioos:station:wmo:42012:1,2016-07-05T17:50:00Z,30.0650,-87.5550,5.0,5.0,250.0,6.0,'1111122,1111122,1111122' 
NDBC,ioos:station:wmo:42012:1,2016-07-05T18:50:00Z,30.0650,-87.5550,5.0,5.0,260.0,5.0,'1111122,1111122,1111122' 
NDBC,ioos:station:wmo:42012:1,2016-07-05T20:50:00Z,30.0650,-87.5550,5.0,5.0,240.0,6.0,'1111122,1111122,1111122' 
NDBC,ioos:station:wmo:42012:1,2016-07-05T21:50:00Z,30.0650,-87.5550,5.0,4.0,240.0,5.0,'1111122,1111122,1111122' 
NDBC,ioos:station:wmo:42012:1,2016-07-05T22:50:00Z,30.0650,-87.5550,5.0,3.0,230.0,4.0,'1111122,1111122,1111122' 
NDBC,ioos:station:wmo:42012:1,2016-07-05T23:50:00Z,30.0650,-87.5550,5.0,5.0,230.0,6.0,'1111122,1111122,1111122' 
NDBC,ioos:station:wmo:42012:1,2016-07-06T00:50:00Z,30.0650,-87.5550,5.0,5.0,230.0,6.0,'1111122,1111122,1111122' 
NDBC,ioos:station:wmo:42012:1,2016-07-06T01:50:00Z,30.0650,-87.5550,5.0,7.0,230.0,8.0,'1111122,1111122,1111122' 
NDBC,ioos:station:wmo:42012:1,2016-07-06T02:50:00Z,30.0650,-87.5550,5.0,6.0,210.0,6.0,'1111122,1111122,1111122' 
NDBC,ioos:station:wmo:42012:1,2016-07-06T03:50:00Z,30.0650,-87.5550,5.0,6.0,210.0,7.0,'1111122,1111122,1111122' 
NDBC,ioos:station:wmo:42012:1,2016-07-06T04:50:00Z,30.0650,-87.5550,5.0,6.0,230.0,7.0,'1111122,1111122,1111122' 
NDBC,ioos:station:wmo:42012:1,2016-07-06T05:50:00Z,30.0650,-87.5550,5.0,7.0,220.0,8.0,'1111122,1111122,1111122' 
NDBC,ioos:station:wmo:42012:1,2016-07-06T06:50:00Z,30.0650,-87.5550,5.0,7.0,220.0,7.0,'1111122,1111122,1111122' 
NDBC,ioos:station:wmo:42012:1,2016-07-06T07:50:00Z,30.0650,-87.5550,5.0,7.0,220.0,8.0,'1111122,1111122,1111122' 
NDBC,ioos:station:wmo:42012:1,2016-07-06T08:50:00Z,30.0650,-87.5550,5.0,6.0,240.0,7.0,'1111122,1111122,1111122' 
NDBC,ioos:station:wmo:42012:1,2016-07-06T09:50:00Z,30.0650,-87.5550,5.0,5.0,230.0,6.0,'1111122,1111122,1111122' 
NDBC,ioos:station:wmo:42012:1,2016-07-06T10:50:00Z,30.0650,-87.5550,5.0,5.0,240.0,6.0,'1111122,1111122,1111122' 
NDBC,ioos:station:wmo:42012:1,2016-07-06T11:50:00Z,30.0650,-87.5550,5.0,5.0,230.0,5.0,'1111122,1111122,1111122' 
NDBC,ioos:station:wmo:42012:1,2016-07-06T12:50:00Z,30.0650,-87.5550,5.0,5.0,250.0,6.0,'1111122,1111122,1111122' 
NDBC,ioos:station:wmo:42012:1,2016-07-06T13:50:00Z,30.0650,-87.5550,5.0,4.0,240.0,5.0,'1111122,1111122,1111122' 
NDBC,ioos:station:wmo:42012:1,2016-07-06T14:50:00Z,30.0650,-87.5550,5.0,3.0,250.0,4.0,'1111122,1111122,1111122' 
NDBC,ioos:station:wmo:42012:1,2016-07-06T15:50:00Z,30.0650,-87.5550,5.0,4.0,260.0,5.0,'1111122,1111122,1111122' 
NDBC,ioos:station:wmo:42012:1,2016-07-06T16:50:00Z,30.0650,-87.5550,5.0,4.0,250.0,5.0,'1111122,1111122,1111122' 
NDBC,ioos:station:wmo:42012:1,2016-07-06T17:50:00Z,30.0650,-87.5550,5.0,4.0,260.0,5.0,'1111122,1111122,1111122' 
NDBC,ioos:station:wmo:42012:1,2016-07-06T18:50:00Z,30.0650,-87.5550,5.0,5.0,240.0,6.0,'1111122,1111122,1111122' 
NDBC,ioos:station:wmo:42012:1,2016-07-06T19:50:00Z,30.0650,-87.5550,5.0,4.0,250.0,5.0,'1111122,1111122,1111122' 
NDBC,ioos:station:wmo:42012:1,2016-07-06T20:50:00Z,30.0650,-87.5550,5.0,4.0,260.0,4.0,'1111122,1111122,1111122' 
NDBC,ioos:station:wmo:42012:1,2016-07-06T21:50:00Z,30.0650,-87.5550,5.0,4.0,240.0,5.0,'1111122,1111122,1111122' 
NDBC,ioos:station:wmo:42012:1,2016-07-06T22:50:00Z,30.0650,-87.5550,5.0,4.0,220.0,4.0,'1111122,1111122,1111122' 
NDBC,ioos:station:wmo:42012:1,2016-07-06T23:50:00Z,30.0650,-87.5550,5.0,4.0,240.0,4.0,'1111122,1111122,1111122' 
NDBC,ioos:station:wmo:42012:1,2016-07-07T00:50:00Z,30.0650,-87.5550,5.0,4.0,220.0,4.0,'1111122,1111122,1111122' 
NDBC,ioos:station:wmo:42012:1,2016-07-07T01:50:00Z,30.0650,-87.5550,5.0,4.0,210.0,5.0,'1111122,1111122,1111122' 
NDBC,ioos:station:wmo:42012:1,2016-07-07T02:50:00Z,30.0650,-87.5550,5.0,4.0,200.0,5.0,'1111122,1111122,1111122' 
NDBC,ioos:station:wmo:42012:1,2016-07-07T03:50:00Z,30.0650,-87.5550,5.0,4.0,200.0,5.0,'1111122,1111122,1111122' 
NDBC,ioos:station:wmo:42012:1,2016-07-07T04:50:00Z,30.0650,-87.5550,5.0,5.0,210.0,6.0,'1111122,1111122,1111122' 
NDBC,ioos:station:wmo:42012:1,2016-07-07T05:50:00Z,30.0650,-87.5550,5.0,6.0,210.0,7.0,'1111122,1111122,1111122' 
NDBC,ioos:station:wmo:42012:1,2016-07-07T06:50:00Z,30.0650,-87.5550,5.0,6.0,210.0,7.0,'1111122,1111122,1111122' 
NDBC,ioos:station:wmo:42012:1,2016-07-07T07:50:00Z,30.0650,-87.5550,5.0,6.0,210.0,8.0,'1111122,1111122,1111122' 
NDBC,ioos:station:wmo:42012:1,2016-07-07T08:50:00Z,30.0650,-87.5550,5.0,7.0,220.0,8.0,'1111122,1111122,1111122' 
NDBC,ioos:station:wmo:42012:1,2016-07-07T09:50:00Z,30.0650,-87.5550,5.0,6.0,230.0,8.0,'1111122,1111122,1111122' 
NDBC,ioos:station:wmo:42012:1,2016-07-07T10:50:00Z,30.0650,-87.5550,5.0,6.0,230.0,7.0,'1111122,1111122,1111122' 
NDBC,ioos:station:wmo:42012:1,2016-07-07T11:50:00Z,30.0650,-87.5550,5.0,5.0,230.0,5.0,'1111122,1111122,1111122' 
NDBC,ioos:station:wmo:42012:1,2016-07-07T12:50:00Z,30.0650,-87.5550,5.0,4.0,240.0,4.0,'1111122,1111122,1111122' 
NDBC,ioos:station:wmo:42012:1,2016-07-07T13:50:00Z,30.0650,-87.5550,5.0,3.0,220.0,5.0,'1111122,1111122,1111122' 
NDBC,ioos:station:wmo:42012:1,2016-07-07T14:50:00Z,30.0650,-87.5550,5.0,4.0,210.0,5.0,'1111122,1111122,1111122' 
NDBC,ioos:station:wmo:42012:1,2016-07-07T15:50:00Z,30.0650,-87.5550,5.0,3.0,230.0,4.0,'1111122,1111122,1111122' 
NDBC,ioos:station:wmo:42012:1,2016-07-07T16:50:00Z,30.0650,-87.5550,5.0,4.0,210.0,5.0,'1111122,1111122,1111122' 
NDBC,ioos:station:wmo:42012:1,2016-07-07T17:50:00Z,30.0650,-87.5550,5.0,4.0,220.0,5.0,'1111122,1111122,1111122' 
NDBC,ioos:station:wmo:42012:1,2016-07-07T18:50:00Z,30.0650,-87.5550,5.0,4.0,200.0,6.0,'1111122,1111122,1111122' 
NDBC,ioos:station:wmo:42012:1,2016-07-07T19:50:00Z,30.0650,-87.5550,5.0,5.0,210.0,6.0,'1111122,1111122,1111122' 
NDBC,ioos:station:wmo:42012:1,2016-07-07T20:50:00Z,30.0650,-87.5550,5.0,4.0,210.0,5.0,'1111122,1111122,1111122' 
NDBC,ioos:station:wmo:42012:1,2016-07-07T21:50:00Z,30.0650,-87.5550,5.0,4.0,210.0,6.0,'1111122,1111122,1111122' 
NDBC,ioos:station:wmo:42012:1,2016-07-07T22:50:00Z,30.0650,-87.5550,5.0,5.0,220.0,6.0,'1111122,1111122,1111122' 
NDBC,ioos:station:wmo:42012:1,2016-07-07T23:50:00Z,30.0650,-87.5550,5.0,5.0,230.0,6.0,'1111122,1111122,1111122' 
NDBC,ioos:station:wmo:42012:1,2016-07-08T00:50:00Z,30.0650,-87.5550,5.0,5.0,220.0,5.0,'1111122,1111122,1111122' 
NDBC,ioos:station:wmo:42012:1,2016-07-08T01:50:00Z,30.0650,-87.5550,5.0,4.0,210.0,5.0,'1111122,1111122,1111122' 
NDBC,ioos:station:wmo:42012:1,2016-07-08T02:50:00Z,30.0650,-87.5550,5.0,3.0,220.0,3.0,'1111122,1111122,1111122' 
NDBC,ioos:station:wmo:42012:1,2016-07-08T03:50:00Z,30.0650,-87.5550,5.0,4.0,210.0,5.0,'1111122,1111122,1111122' 
NDBC,ioos:station:wmo:42012:1,2016-07-08T04:50:00Z,30.0650,-87.5550,5.0,5.0,190.0,6.0,'1111122,1111122,1111122' 
NDBC,ioos:station:wmo:42012:1,2016-07-08T05:50:00Z,30.0650,-87.5550,5.0,5.0,210.0,6.0,'1111122,1111122,1111122' 
NDBC,ioos:station:wmo:42012:1,2016-07-08T06:50:00Z,30.0650,-87.5550,5.0,7.0,200.0,8.0,'1111122,1111122,1111122' 
NDBC,ioos:station:wmo:42012:1,2016-07-08T07:50:00Z,30.0650,-87.5550,5.0,7.0,210.0,9.0,'1111122,1111122,1111122' 
NDBC,ioos:station:wmo:42012:1,2016-07-08T08:50:00Z,30.0650,-87.5550,5.0,7.0,210.0,9.0,'1111122,1111122,1111122' 
NDBC,ioos:station:wmo:42012:1,2016-07-08T09:50:00Z,30.0650,-87.5550,5.0,7.0,220.0,8.0,'1111122,1111122,1111122' 
NDBC,ioos:station:wmo:42012:1,2016-07-08T10:50:00Z,30.0650,-87.5550,5.0,6.0,220.0,8.0,'1111122,1111122,1111122' 
NDBC,ioos:station:wmo:42012:1,2016-07-08T11:50:00Z,30.0650,-87.5550,5.0,5.0,240.0,6.0,'1111122,1111122,1111122' 
NDBC,ioos:station:wmo:42012:1,2016-07-08T12:50:00Z,30.0650,-87.5550,5.0,4.0,250.0,5.0,'1111122,1111122,1111122' 
NDBC,ioos:station:wmo:42012:1,2016-07-08T13:50:00Z,30.0650,-87.5550,5.0,3.0,240.0,4.0,'1111122,1111122,1111122' 
NDBC,ioos:station:wmo:42012:1,2016-07-08T14:50:00Z,30.0650,-87.5550,5.0,5.0,310.0,6.0,'1111122,1111122,1111122' 
NDBC,ioos:station:wmo:42012:1,2016-07-08T15:50:00Z,30.0650,-87.5550,5.0,4.0,320.0,4.0,'1111122,1111122,1111122' 
NDBC,ioos:station:wmo:42012:1,2016-07-08T16:50:00Z,30.0650,-87.5550,5.0,2.0,300.0,2.0,'1111122,1111122,1111122' 
NDBC,ioos:station:wmo:42012:1,2016-07-08T17:50:00Z,30.0650,-87.5550,5.0,2.0,240.0,3.0,'1111122,1111122,1111122' 
NDBC,ioos:station:wmo:42012:1,2016-07-08T18:50:00Z,30.0650,-87.5550,5.0,3.0,220.0,4.0,'1111122,1111122,1111122' 
NDBC,ioos:station:wmo:42012:1,2016-07-08T19:50:00Z,30.0650,-87.5550,5.0,3.0,220.0,4.0,'1111122,1111122,1111122' 
NDBC,ioos:station:wmo:42012:1,2016-07-08T20:50:00Z,30.0650,-87.5550,5.0,4.0,240.0,6.0,'1111122,1111122,1111122' 
NDBC,ioos:station:wmo:42012:1,2016-07-08T21:50:00Z,30.0650,-87.5550,5.0,5.0,220.0,6.0,'1111122,1111122,1111122' 
NDBC,ioos:station:wmo:42012:1,2016-07-08T22:50:00Z,30.0650,-87.5550,5.0,5.0,220.0,7.0,'1111122,1111122,1111122' 
NDBC,ioos:station:wmo:42012:1,2016-07-08T23:50:00Z,30.0650,-87.5550,5.0,6.0,230.0,8.0,'1111122,1111122,1111122' 
NDBC,ioos:station:wmo:42012:1,2016-07-09T00:50:00Z,30.0650,-87.5550,5.0,6.0,230.0,7.0,'1111122,1111122,1111122' 
NDBC,ioos:station:wmo:42012:1,2016-07-09T01:50:00Z,30.0650,-87.5550,5.0,5.0,230.0,7.0,'1111122,1111122,1111122' 
NDBC,ioos:station:wmo:42012:1,2016-07-09T02:50:00Z,30.0650,-87.5550,5.0,5.0,250.0,6.0,'1111122,1111122,1111122' 
NDBC,ioos:station:wmo:42012:1,2016-07-09T03:50:00Z,30.0650,-87.5550,5.0,4.0,250.0,6.0,'1111122,1111122,1111122' 
NDBC,ioos:station:wmo:42012:1,2016-07-09T04:50:00Z,30.0650,-87.5550,5.0,5.0,250.0,5.0,'1111122,1111122,1111122' 
NDBC,ioos:station:wmo:42012:1,2016-07-09T05:50:00Z,30.0650,-87.5550,5.0,5.0,260.0,6.0,'1111122,1111122,1111122' 
NDBC,ioos:station:wmo:42012:1,2016-07-09T06:50:00Z,30.0650,-87.5550,5.0,6.0,250.0,7.0,'1111122,1111122,1111122' 
NDBC,ioos:station:wmo:42012:1,2016-07-09T07:50:00Z,30.0650,-87.5550,5.0,6.0,260.0,7.0,'1111122,1111122,1111122' 
NDBC,ioos:station:wmo:42012:1,2016-07-09T08:50:00Z,30.0650,-87.5550,5.0,5.0,270.0,6.0,'1111122,1111122,1111122' 
NDBC,ioos:station:wmo:42012:1,2016-07-09T09:50:00Z,30.0650,-87.5550,5.0,5.0,270.0,6.0,'1111122,1111122,1111122' 
NDBC,ioos:station:wmo:42012:1,2016-07-09T10:50:00Z,30.0650,-87.5550,5.0,5.0,290.0,6.0,'1111122,1111122,1111122' 
NDBC,ioos:station:wmo:42012:1,2016-07-09T11:50:00Z,30.0650,-87.5550,5.0,4.0,270.0,5.0,'1111122,1111122,1111122' 
NDBC,ioos:station:wmo:42012:1,2016-07-09T12:50:00Z,30.0650,-87.5550,5.0,5.0,290.0,6.0,'1111122,1111122,1111122' 
NDBC,ioos:station:wmo:42012:1,2016-07-09T13:50:00Z,30.0650,-87.5550,5.0,3.0,320.0,4.0,'1111122,1111122,1111122' 
NDBC,ioos:station:wmo:42012:1,2016-07-09T14:50:00Z,30.0650,-87.5550,5.0,6.0,320.0,7.0,'1111122,1111122,1111122' 
NDBC,ioos:station:wmo:42012:1,2016-07-09T15:50:00Z,30.0650,-87.5550,5.0,5.0,310.0,6.0,'1111122,1111122,1111122' 
NDBC,ioos:station:wmo:42012:1,2016-07-09T16:50:00Z,30.0650,-87.5550,5.0,4.0,290.0,5.0,'1111122,1111122,1111122' 
NDBC,ioos:station:wmo:42012:1,2016-07-09T17:50:00Z,30.0650,-87.5550,5.0,4.0,280.0,5.0,'1111122,1111122,1111122' 
NDBC,ioos:station:wmo:42012:1,2016-07-09T18:50:00Z,30.0650,-87.5550,5.0,5.0,250.0,6.0,'1111122,1111122,1111122' 
NDBC,ioos:station:wmo:42012:1,2016-07-09T19:50:00Z,30.0650,-87.5550,5.0,6.0,240.0,7.0,'1111122,1111122,1111122' 
NDBC,ioos:station:wmo:42012:1,2016-07-09T20:50:00Z,30.0650,-87.5550,5.0,6.0,250.0,8.0,'1111122,1111122,1111122' 
NDBC,ioos:station:wmo:42012:1,2016-07-09T21:50:00Z,30.0650,-87.5550,5.0,7.0,250.0,7.0,'1111122,1111122,1111122' 
NDBC,ioos:station:wmo:42012:1,2016-07-09T22:50:00Z,30.0650,-87.5550,5.0,5.0,250.0,6.0,'1111122,1111122,1111122' 
NDBC,ioos:station:wmo:42012:1,2016-07-09T23:50:00Z,30.0650,-87.5550,5.0,5.0,240.0,6.0,'1111122,1111122,1111122' 
NDBC,ioos:station:wmo:42012:1,2016-07-10T00:50:00Z,30.0650,-87.5550,5.0,6.0,250.0,7.0,'1111122,1111122,1111122' 
NDBC,ioos:station:wmo:42012:1,2016-07-10T01:50:00Z,30.0650,-87.5550,5.0,4.0,250.0,5.0,'1111122,1111122,1111122' 
NDBC,ioos:station:wmo:42012:1,2016-07-10T02:50:00Z,30.0650,-87.5550,5.0,4.0,250.0,5.0,'1111122,1111122,1111122' 
NDBC,ioos:station:wmo:42012:1,2016-07-10T03:50:00Z,30.0650,-87.5550,5.0,4.0,230.0,5.0,'1111122,1111122,1111122' 
NDBC,ioos:station:wmo:42012:1,2016-07-10T04:50:00Z,30.0650,-87.5550,5.0,5.0,250.0,6.0,'1111122,1111122,1111122' 
NDBC,ioos:station:wmo:42012:1,2016-07-10T05:50:00Z,30.0650,-87.5550,5.0,6.0,250.0,6.0,'1111122,1111122,1111122' 
NDBC,ioos:station:wmo:42012:1,2016-07-10T06:50:00Z,30.0650,-87.5550,5.0,6.0,250.0,6.0,'1111122,1111122,1111122' 
NDBC,ioos:station:wmo:42012:1,2016-07-10T07:50:00Z,30.0650,-87.5550,5.0,6.0,260.0,7.0,'1111122,1111122,1111122' 
NDBC,ioos:station:wmo:42012:1,2016-07-10T08:50:00Z,30.0650,-87.5550,5.0,6.0,270.0,7.0,'1111122,1111122,1111122' 
NDBC,ioos:station:wmo:42012:1,2016-07-10T09:50:00Z,30.0650,-87.5550,5.0,5.0,270.0,7.0,'1111122,1111122,1111122' 
NDBC,ioos:station:wmo:42012:1,2016-07-10T10:50:00Z,30.0650,-87.5550,5.0,7.0,310.0,8.0,'1111122,1111122,1111122' 
NDBC,ioos:station:wmo:42012:1,2016-07-10T11:50:00Z,30.0650,-87.5550,5.0,6.0,290.0,7.0,'1111122,1111122,1111122' 
NDBC,ioos:station:wmo:42012:1,2016-07-10T12:50:00Z,30.0650,-87.5550,5.0,7.0,330.0,8.0,'1111122,1111122,1111122' 
NDBC,ioos:station:wmo:42012:1,2016-07-10T13:50:00Z,30.0650,-87.5550,5.0,4.0,280.0,6.0,'1111122,1111122,1111122' 
NDBC,ioos:station:wmo:42012:1,2016-07-10T14:50:00Z,30.0650,-87.5550,5.0,3.0,270.0,4.0,'1111122,1111122,1111122' 
NDBC,ioos:station:wmo:42012:1,2016-07-10T15:50:00Z,30.0650,-87.5550,5.0,2.0,200.0,3.0,'1111122,1111122,1111122' 
NDBC,ioos:station:wmo:42012:1,2016-07-10T16:50:00Z,30.0650,-87.5550,5.0,3.0,250.0,4.0,'1111122,1111122,1111122' 
NDBC,ioos:station:wmo:42012:1,2016-07-10T17:50:00Z,30.0650,-87.5550,5.0,3.0,250.0,3.0,'1111122,1111122,1111122' 
NDBC,ioos:station:wmo:42012:1,2016-07-10T18:50:00Z,30.0650,-87.5550,5.0,3.0,220.0,4.0,'1111122,1111122,1111122' 
NDBC,ioos:station:wmo:42012:1,2016-07-10T19:50:00Z,30.0650,-87.5550,5.0,4.0,220.0,5.0,'1111122,1111122,1111122' 
NDBC,ioos:station:wmo:42012:1,2016-07-10T20:50:00Z,30.0650,-87.5550,5.0,5.0,210.0,6.0,'1111122,1111122,1111122' 
NDBC,ioos:station:wmo:42012:1,2016-07-10T21:50:00Z,30.0650,-87.5550,5.0,4.0,200.0,5.0,'1111122,1111122,1111122' 
NDBC,ioos:station:wmo:42012:1,2016-07-10T22:50:00Z,30.0650,-87.5550,5.0,4.0,210.0,5.0,'1111122,1111122,1111122' 
NDBC,ioos:station:wmo:42012:1,2016-07-10T23:50:00Z,30.0650,-87.5550,5.0,4.0,210.0,5.0,'1111122,1111122,1111122' 
NDBC,ioos:station:wmo:42012:1,2016-07-11T00:50:00Z,30.0650,-87.5550,5.0,5.0,250.0,6.0,'1111122,1111122,1111122' 
NDBC,ioos:station:wmo:42012:1,2016-07-11T01:50:00Z,30.0650,-87.5550,5.0,4.0,240.0,5.0,'1111122,1111122,1111122' 
NDBC,ioos:station:wmo:42012:1,2016-07-11T02:50:00Z,30.0650,-87.5550,5.0,4.0,220.0,4.0,'1111122,1111122,1111122' 
NDBC,ioos:station:wmo:42012:1,2016-07-11T03:50:00Z,30.0650,-87.5550,5.0,3.0,220.0,4.0,'1111122,1111122,1111122' 
NDBC,ioos:station:wmo:42012:1,2016-07-11T04:50:00Z,30.0650,-87.5550,5.0,3.0,210.0,4.0,'1111122,1111122,1111122' 
NDBC,ioos:station:wmo:42012:1,2016-07-11T05:50:00Z,30.0650,-87.5550,5.0,4.0,210.0,4.0,'1111122,1111122,1111122' 
NDBC,ioos:station:wmo:42012:1,2016-07-11T06:50:00Z,30.0650,-87.5550,5.0,4.0,210.0,5.0,'1111122,1111122,1111122' 
NDBC,ioos:station:wmo:42012:1,2016-07-11T07:50:00Z,30.0650,-87.5550,5.0,5.0,210.0,6.0,'1111122,1111122,1111122' 
NDBC,ioos:station:wmo:42012:1,2016-07-11T08:50:00Z,30.0650,-87.5550,5.0,4.0,220.0,5.0,'1111122,1111122,1111122' 
NDBC,ioos:station:wmo:42012:1,2016-07-11T09:50:00Z,30.0650,-87.5550,5.0,4.0,220.0,5.0,'1111122,1111122,1111122' 
NDBC,ioos:station:wmo:42012:1,2016-07-11T10:50:00Z,30.0650,-87.5550,5.0,5.0,210.0,6.0,'1111122,1111122,1111122' 
NDBC,ioos:station:wmo:42012:1,2016-07-11T11:50:00Z,30.0650,-87.5550,5.0,5.0,220.0,6.0,'1111122,1111122,1111122' 
NDBC,ioos:station:wmo:42012:1,2016-07-11T12:50:00Z,30.0650,-87.5550,5.0,4.0,220.0,5.0,'1111122,1111122,1111122' 
NDBC,ioos:station:wmo:42012:1,2016-07-11T13:50:00Z,30.0650,-87.5550,5.0,3.0,240.0,5.0,'1111122,1111122,1111122' 
NDBC,ioos:station:wmo:42012:1,2016-07-11T14:50:00Z,30.0650,-87.5550,5.0,3.0,230.0,4.0,'1111122,1111122,1111122' 
NDBC,ioos:station:wmo:42012:1,2016-07-11T15:50:00Z,30.0650,-87.5550,5.0,1.0,260.0,2.0,'1111122,1111122,1111122' 
NDBC,ioos:station:wmo:42012:1,2016-07-11T16:50:00Z,30.0650,-87.5550,5.0,4.0,200.0,7.0,'1111122,1111122,1111122' 
NDBC,ioos:station:wmo:42012:1,2016-07-11T17:50:00Z,30.0650,-87.5550,5.0,3.0,210.0,3.0,'1111122,1111122,1111122' 
NDBC,ioos:station:wmo:42012:1,2016-07-11T18:50:00Z,30.0650,-87.5550,5.0,2.0,190.0,3.0,'1111122,1111122,1111122' 
NDBC,ioos:station:wmo:42012:1,2016-07-11T19:50:00Z,30.0650,-87.5550,5.0,2.0,210.0,3.0,'1111122,1111122,1111122' 
NDBC,ioos:station:wmo:42012:1,2016-07-11T20:50:00Z,30.0650,-87.5550,5.0,1.0,230.0,2.0,'1111122,1111122,1111122' 
NDBC,ioos:station:wmo:42012:1,2016-07-11T21:50:00Z,30.0650,-87.5550,5.0,2.0,210.0,3.0,'1111122,1111122,1111122' 
NDBC,ioos:station:wmo:42012:1,2016-07-11T22:50:00Z,30.0650,-87.5550,5.0,3.0,170.0,4.0,'1111122,1111122,1111122' 
NDBC,ioos:station:wmo:42012:1,2016-07-11T23:50:00Z,30.0650,-87.5550,5.0,2.0,140.0,3.0,'1111122,1111122,1111122' 
NDBC,ioos:station:wmo:42012:1,2016-07-12T00:50:00Z,30.0650,-87.5550,5.0,3.0,190.0,4.0,'1111122,1111122,1111122' 
NDBC,ioos:station:wmo:42012:1,2016-07-12T01:50:00Z,30.0650,-87.5550,5.0,2.0,190.0,2.0,'1111122,1111122,1111122' 
NDBC,ioos:station:wmo:42012:1,2016-07-12T02:50:00Z,30.0650,-87.5550,5.0,2.0,180.0,3.0,'1111122,1111122,1111122' 
NDBC,ioos:station:wmo:42012:1,2016-07-12T03:50:00Z,30.0650,-87.5550,5.0,4.0,170.0,5.0,'1111122,1111122,1111122' 
NDBC,ioos:station:wmo:42012:1,2016-07-12T04:50:00Z,30.0650,-87.5550,5.0,4.0,170.0,5.0,'1111122,1111122,1111122' 
NDBC,ioos:station:wmo:42012:1,2016-07-12T05:50:00Z,30.0650,-87.5550,5.0,5.0,170.0,5.0,'1111122,1111122,1111122' 
NDBC,ioos:station:wmo:42012:1,2016-07-12T06:50:00Z,30.0650,-87.5550,5.0,4.0,170.0,4.0,'1111122,1111122,1111122' 
NDBC,ioos:station:wmo:42012:1,2016-07-12T07:50:00Z,30.0650,-87.5550,5.0,4.0,180.0,4.0,'1111122,1111122,1111122' 
NDBC,ioos:station:wmo:42012:1,2016-07-12T08:50:00Z,30.0650,-87.5550,5.0,5.0,180.0,6.0,'1111122,1111122,1111122' 
NDBC,ioos:station:wmo:42012:1,2016-07-12T09:50:00Z,30.0650,-87.5550,5.0,3.0,190.0,4.0,'1111122,1111122,1111122' 
NDBC,ioos:station:wmo:42012:1,2016-07-12T10:50:00Z,30.0650,-87.5550,5.0,4.0,190.0,5.0,'1111122,1111122,1111122' 
NDBC,ioos:station:wmo:42012:1,2016-07-12T11:50:00Z,30.0650,-87.5550,5.0,4.0,200.0,5.0,'1111122,1111122,1111122' 
NDBC,ioos:station:wmo:42012:1,2016-07-12T12:50:00Z,30.0650,-87.5550,5.0,2.0,180.0,3.0,'1111122,1111122,1111122' 
NDBC,ioos:station:wmo:42012:1,2016-07-12T13:50:00Z,30.0650,-87.5550,5.0,3.0,190.0,3.0,'1111122,1111122,1111122' 
NDBC,ioos:station:wmo:42012:1,2016-07-12T14:50:00Z,30.0650,-87.5550,5.0,2.0,120.0,3.0,'1111122,1111122,1111122' 
NDBC,ioos:station:wmo:42012:1,2016-07-12T15:50:00Z,30.0650,-87.5550,5.0,2.0,120.0,3.0,'1111122,1111122,1111122' 
NDBC,ioos:station:wmo:42012:1,2016-07-12T16:50:00Z,30.0650,-87.5550,5.0,1.0,160.0,6.0,'1111122,1111122,1111122' 
NDBC,ioos:station:wmo:42012:1,2016-07-12T17:50:00Z,30.0650,-87.5550,5.0,4.0,20.0,5.0,'1111122,1111122,1111122' 
NDBC,ioos:station:wmo:42012:1,2016-07-12T18:50:00Z,30.0650,-87.5550,5.0,6.0,10.0,7.0,'1111122,1111122,1111122' 
NDBC,ioos:station:wmo:42012:1,2016-07-12T19:50:00Z,30.0650,-87.5550,5.0,4.0,60.0,5.0,'1111122,1111122,1111122' 
NDBC,ioos:station:wmo:42012:1,2016-07-12T20:50:00Z,30.0650,-87.5550,5.0,5.0,60.0,6.0,'1111122,1111122,1111122' 
NDBC,ioos:station:wmo:42012:1,2016-07-12T21:50:00Z,30.0650,-87.5550,5.0,5.0,90.0,5.0,'1111122,1111122,1111122' 
NDBC,ioos:station:wmo:42012:1,2016-07-12T22:50:00Z,30.0650,-87.5550,5.0,3.0,70.0,4.0,'1111122,1111122,1111122' 
NDBC,ioos:station:wmo:42012:1,2016-07-12T23:50:00Z,30.0650,-87.5550,5.0,4.0,60.0,5.0,'1111122,1111122,1111122' 
NDBC,ioos:station:wmo:42012:1,2016-07-13T00:50:00Z,30.0650,-87.5550,5.0,4.0,80.0,4.0,'1111122,1111122,1111122' 
NDBC,ioos:station:wmo:42012:1,2016-07-13T01:50:00Z,30.0650,-87.5550,5.0,5.0,100.0,5.0,'1111122,1111122,1111122' 
NDBC,ioos:station:wmo:42012:1,2016-07-13T02:50:00Z,30.0650,-87.5550,5.0,5.0,110.0,6.0,'1111122,1111122,1111122' 
NDBC,ioos:station:wmo:42012:1,2016-07-13T03:50:00Z,30.0650,-87.5550,5.0,5.0,110.0,6.0,'1111122,1111122,1111122' 
NDBC,ioos:station:wmo:42012:1,2016-07-13T04:50:00Z,30.0650,-87.5550,5.0,6.0,130.0,7.0,'1111122,1111122,1111122' 
NDBC,ioos:station:wmo:42012:1,2016-07-13T05:50:00Z,30.0650,-87.5550,5.0,4.0,140.0,5.0,'1111122,1111122,1111122' 
NDBC,ioos:station:wmo:42012:1,2016-07-13T06:50:00Z,30.0650,-87.5550,5.0,7.0,110.0,8.0,'1111122,1111122,1111122' 
NDBC,ioos:station:wmo:42012:1,2016-07-13T07:50:00Z,30.0650,-87.5550,5.0,4.0,140.0,5.0,'1111122,1111122,1111122' 
NDBC,ioos:station:wmo:42012:1,2016-07-13T08:50:00Z,30.0650,-87.5550,5.0,3.0,130.0,4.0,'1111122,1111122,1111122' 
NDBC,ioos:station:wmo:42012:1,2016-07-13T09:50:00Z,30.0650,-87.5550,5.0,2.0,210.0,3.0,'1111122,1111122,1111122' 
NDBC,ioos:station:wmo:42012:1,2016-07-13T10:50:00Z,30.0650,-87.5550,5.0,3.0,250.0,3.0,'1111122,1111122,1111122' 
NDBC,ioos:station:wmo:42012:1,2016-07-13T11:50:00Z,30.0650,-87.5550,5.0,2.0,250.0,2.0,'1111122,1111122,1111122' 
NDBC,ioos:station:wmo:42012:1,2016-07-13T12:50:00Z,30.0650,-87.5550,5.0,1.0,260.0,1.0,'1111122,1111122,1111122' 
NDBC,ioos:station:wmo:42012:1,2016-07-13T13:50:00Z,30.0650,-87.5550,5.0,4.0,50.0,5.0,'1111122,1111122,1111122' 
NDBC,ioos:station:wmo:42012:1,2016-07-13T14:50:00Z,30.0650,-87.5550,5.0,2.0,110.0,4.0,'1111122,1111122,1111122' 
NDBC,ioos:station:wmo:42012:1,2016-07-13T17:50:00Z,30.0650,-87.5550,5.0,1.0,130.0,2.0,'1111122,1111122,1111122' 
NDBC,ioos:station:wmo:42012:1,2016-07-13T19:50:00Z,30.0650,-87.5550,5.0,4.0,140.0,5.0,'1111122,1111122,1111122' 
NDBC,ioos:station:wmo:42012:1,2016-07-13T20:50:00Z,30.0650,-87.5550,5.0,4.0,160.0,5.0,'1111122,1111122,1111122' 
NDBC,ioos:station:wmo:42012:1,2016-07-13T21:50:00Z,30.0650,-87.5550,5.0,2.0,140.0,3.0,'1111122,1111122,1111122' 